Location: Township of Marena
(38.1747°N, 99.6798°W)
Time: 03:21:42
(UTC+00:00)

H-2A R/B - Pass Details

Date: 26 October 2020
Orbit: 577 x 656 km, 98.5° (Epoch: 27 November)

Event Time Altitude Azimuth Distance (km) Brightness Sun altitude
Rises 10:54:05 0° 173° (S) 2,959 5.6 -25.1°
Reaches altitude 10° 10:56:19 10° 177° (S) 2,047 4.7 -24.7°
Enters shadow 10:57:54 22° 182° (S) 1,430 3.8 -24.4°
